GEFSSE_500_meanwind_312.txt.gz
Wind_Speed
10 10 10 10 9 8 8 7 6 6 5 5 5 5 5 5 4 4 4 4 4 4 4 4 4 4 3 3 3 2 2 2 2 2 2 2 3 3 4 4 4 4 4
12 11 11 11 10 10 9 8 8 8 7 7 6 6 6 6 5 5 5 5 5 5 6 6 6 5 5 4 4 4 4 4 3 3 3 3 3 4 4 4 5 5 5
13 13 12 12 12 11 11 10 10 9 9 9 8 8 7 8 7 7 7 6 7 7 7 7 7 7 7 6 6 5 5 5 5 4 4 4 4 4 5 5 5 5 6
15 14 14 13 13 13 13 12 12 11 11 10 10 9 9 9 9 9 8 8 9 9 9 9 8 9 9 8 7 7 7 7 6 6 5 5 5 5 5 5 6 6 6
17 16 15 15 15 15 15 14 14 13 13 12 12 11 11 11 11 11 10 10 10 11 10 10 10 10 10 10 9 9 8 8 8 8 7 7 7 7 6 6 6 6 6
19 19 18 17 16 16 17 16 16 16 15 14 14 13 13 13 12 12 12 12 11 12 12 12 12 11 11 11 11 10 10 9 9 9 9 9 9 8 8 8 8 7 7
20 20 20 19 18 18 18 18 18 18 17 17 16 15 15 15 14 14 14 13 13 13 13 13 13 13 12 12 12 12 11 11 10 11 11 11 11 10 10 10 9 9 9
23 22 22 21 20 20 20 20 20 20 19 19 18 17 17 16 16 15 15 15 14 14 14 14 14 14 14 14 14 13 13 13 12 12 12 12 12 12 12 12 11 11 11
25 24 24 22 22 22 22 22 22 21 21 21 20 19 19 18 17 17 17 17 16 16 15 15 15 15 15 15 15 15 14 14 14 14 14 13 13 13 13 14 13 13 13
27 26 25 24 24 24 24 24 23 23 23 22 22 21 20 20 19 19 19 18 18 17 17 16 17 17 17 17 17 17 16 16 15 15 15 15 15 15 15 15 15 15 15
27 27 27 26 26 25 25 25 25 25 25 24 23 23 22 22 21 21 21 20 20 19 19 19 18 18 19 19 19 18 18 17 17 17 17 16 17 17 17 17 17 17 17
29 28 28 28 27 27 27 27 27 27 26 26 25 25 25 24 24 23 23 22 22 22 21 21 21 20 21 21 20 20 19 19 19 19 19 19 19 19 19 19 19 19 19
31 30 29 29 29 28 28 28 28 29 28 28 27 27 26 26 26 25 25 24 24 24 23 23 23 23 22 22 22 22 22 21 21 21 21 21 21 21 22 22 22 21 21
33 32 31 31 30 30 30 30 29 30 29 30 29 29 28 28 28 27 27 26 25 25 25 25 25 25 24 24 24 24 24 24 24 24 24 24 23 23 24 24 24 24 23
34 33 32 32 32 32 31 31 31 31 31 31 31 30 30 30 29 28 28 28 27 27 27 27 26 26 26 26 26 26 26 26 26 26 26 26 26 26 26 26 27 27 27
34 34 33 33 33 34 33 33 32 32 32 32 32 32 32 31 31 29 29 30 30 29 29 29 29 28 28 28 28 28 28 29 29 28 28 29 29 28 28 29 29 29 29
36 36 35 34 34 34 34 34 34 34 34 34 34 33 33 32 32 32 31 32 32 31 31 31 31 31 31 30 30 30 30 30 31 31 31 31 31 31 31 31 31 32 32
37 38 38 36 35 35 34 34 34 35 35 35 35 35 34 34 34 33 33 33 33 33 33 33 33 33 33 33 33 32 32 33 33 33 33 33 33 33 33 33 34 34 35
38 39 39 37 37 36 35 34 35 35 35 35 35 35 35 35 34 34 34 34 34 34 34 35 34 34 34 34 35 35 35 35 35 35 35 36 36 36 36 36 36 36 37
39 39 39 38 38 38 37 37 35 36 36 36 36 36 36 36 36 36 36 36 35 35 35 35 36 36 36 37 37 37 37 36 37 37 37 38 38 38 38 39 39 39 39
39 39 39 39 39 38 38 38 37 37 37 37 37 38 38 38 38 37 38 38 37 37 36 37 37 37 38 38 39 39 39 38 39 39 40 40 40 41 40 41 40 40 40
40 40 41 41 41 40 40 38 38 38 38 38 38 38 40 40 39 39 38 38 38 38 38 38 38 39 39 40 40 40 40 40 40 40 41 42 42 42 42 41 41 41 41
40 41 42 42 43 42 42 40 39 38 39 39 39 39 40 40 40 41 41 40 40 40 39 40 40 41 41 41 42 42 41 41 41 41 42 42 43 43 43 43 42 42 41
37 39 42 43 44 44 43 42 41 40 40 40 40 40 40 41 41 42 42 42 41 41 41 41 42 42 42 43 43 43 43 43 43 42 43 43 44 43 43 43 43 43 43
37 38 41 42 43 44 43 43 42 41 41 40 41 41 42 42 42 42 43 43 43 43 42 42 43 43 43 44 44 44 44 44 45 44 44 44 44 44 43 43 44 44 43
37 39 40 40 42 43 43 42 42 42 42 42 42 42 42 43 43 44 44 44 45 44 43 43 44 44 44 45 45 46 46 46 46 46 45 45 45 45 44 45 45 45 45

GEFSSE_500_meanwind_318.txt.gz
Wind_Speed
10 10 9 9 8 8 7 6 5 4 4 3 3 3 2 2 2 2 2 2 2 2 3 3 3 3 3 3 3 3 4 4 3 3 3 4 4 3 4 4 4 4 5
11 11 10 10 10 9 8 7 6 6 5 5 4 4 3 3 3 3 3 3 3 4 4 4 4 4 4 5 5 5 5 5 4 4 5 5 5 5 5 5 5 5 6
13 12 12 12 11 11 10 9 8 8 7 6 6 5 5 5 5 5 5 5 5 5 5 6 6 6 6 6 6 6 6 6 5 5 5 6 6 6 6 5 6 6 6
14 14 13 13 13 13 12 11 11 10 9 8 8 7 7 7 7 7 7 7 7 7 7 7 7 7 7 7 7 7 7 7 7 7 7 7 7 7 7 6 6 7 7
16 16 15 15 14 14 14 13 12 12 11 10 10 9 9 9 9 9 9 9 9 9 8 8 8 8 8 8 8 8 8 8 8 8 8 8 8 8 8 8 7 7 7
19 18 17 16 16 15 15 15 14 14 13 12 12 12 11 10 10 11 11 11 11 11 10 10 10 10 10 10 10 10 10 9 9 9 9 9 9 9 9 9 9 8 8
21 20 19 18 18 18 17 16 16 15 15 14 14 14 13 13 12 13 13 13 12 12 12 12 12 11 12 12 12 12 12 11 11 10 10 10 10 10 10 10 10 10 10
23 22 21 21 20 19 18 17 17 17 17 16 16 16 15 15 14 14 14 14 14 14 13 14 14 13 13 14 14 14 14 13 13 12 12 12 12 12 12 11 11 12 12
26 24 24 23 22 21 20 19 19 19 18 18 18 18 18 17 17 16 16 15 16 16 16 16 16 15 15 15 15 15 15 15 15 14 13 13 14 14 14 13 13 13 14
27 27 26 25 25 23 22 22 21 21 20 20 20 20 20 19 19 18 18 18 18 18 18 17 17 17 16 16 16 16 16 16 16 16 15 15 15 15 15 15 15 15 15
29 28 28 27 26 26 25 24 23 23 22 22 22 21 21 21 21 20 20 20 20 20 20 19 19 19 18 18 18 18 18 18 18 18 18 17 17 17 17 17 18 18 18
30 30 29 29 28 27 26 25 25 24 24 24 24 23 24 23 23 23 22 22 22 22 22 21 21 21 20 20 20 20 19 19 20 20 19 19 19 19 19 20 20 20 20
31 31 30 30 29 29 28 28 27 26 26 26 25 25 26 25 25 25 24 24 24 24 24 23 23 22 22 22 22 22 21 21 22 22 22 22 22 22 22 23 23 23 23
33 32 31 31 31 30 30 30 29 28 27 27 27 27 27 27 27 27 27 26 26 26 25 25 25 25 25 25 25 24 24 23 24 24 24 24 24 24 25 25 25 25 24
34 34 34 33 33 33 32 31 30 29 29 29 29 29 29 29 29 29 29 29 28 27 27 27 27 27 27 27 27 27 26 26 26 27 27 27 27 27 27 27 27 27 27
35 36 36 35 34 34 33 32 31 31 31 30 30 30 30 30 30 31 31 31 30 30 29 29 30 30 30 30 30 29 29 29 29 29 29 29 29 29 29 28 29 29 29
37 37 37 36 36 35 35 34 33 33 33 32 32 32 31 31 32 32 32 32 32 32 31 31 32 32 32 32 32 32 31 31 30 30 31 31 31 31 31 31 31 32 31
39 39 39 39 37 36 36 35 35 35 34 34 33 34 33 33 33 33 33 33 34 34 34 34 34 34 34 34 34 34 34 33 33 33 33 33 33 34 34 34 34 34 34
39 40 40 40 40 39 38 37 36 36 35 35 34 35 34 33 34 34 34 34 35 35 35 36 36 36 35 35 35 35 35 35 36 35 35 35 36 36 36 36 36 36 36
40 41 41 41 42 41 41 39 38 37 36 36 36 35 35 34 34 35 35 36 36 36 36 36 36 36 36 36 36 36 37 37 37 37 37 38 38 38 38 38 38 38 38
39 41 42 41 41 42 41 40 39 38 37 37 37 37 37 36 36 36 36 37 37 37 37 36 36 37 37 37 37 38 38 39 38 38 38 39 39 39 39 40 40 40 40
39 40 40 41 41 41 40 41 41 40 38 38 38 38 38 38 38 37 37 38 38 37 37 37 38 38 38 38 39 39 39 39 39 38 38 39 39 40 40 40 41 41 41
39 39 40 40 41 41 42 42 41 41 40 39 39 39 39 39 39 38 38 38 39 38 38 38 38 39 39 40 40 41 40 40 39 39 39 40 40 40 41 41 41 42 42
38 39 40 41 41 41 42 42 43 42 41 39 39 39 40 40 39 40 40 41 41 40 40 39 40 40 40 40 41 41 41 41 41 39 39 40 40 40 41 41 42 42 43
37 39 40 41 42 41 42 43 43 42 42 42 40 39 40 41 41 42 42 42 42 42 42 41 41 42 42 42 42 42 42 42 42 41 41 41 41 42 42 42 43 43 43
38 39 40 40 42 43 43 43 43 43 43 43 43 41 40 41 42 43 43 43 43 43 43 43 43 42 42 43 43 43 43 43 43 43 43 43 43 43 44 43 44 45 45

GEFSSE_500_meanwind_324.txt.gz
Wind_Speed
12 12 11 10 10 9 9 9 8 8 7 7 6 5 5 4 4 4 4 4 3 2 2 2 2 2 2 2 2 2 1 2 1 2 2 2 2 2 2 2 3 3 3
13 13 12 12 11 11 10 10 10 9 9 8 7 7 6 6 5 5 5 4 4 3 3 3 3 3 3 3 3 3 3 3 3 3 3 3 3 3 3 3 3 3 3
15 14 14 13 12 12 12 11 11 11 10 9 9 8 8 7 7 6 6 5 5 4 4 4 4 4 5 5 5 5 5 4 4 4 4 5 5 4 4 4 4 4 4
16 16 15 15 14 13 13 13 12 12 11 11 10 10 9 9 9 8 8 7 7 6 6 6 6 6 6 6 6 6 6 6 6 6 6 6 6 6 6 5 5 5 5
18 17 17 16 15 15 15 14 14 14 13 12 12 11 11 10 10 10 10 9 9 8 8 7 7 7 7 7 7 8 8 8 8 8 8 7 7 7 7 7 7 7 7
20 19 18 17 17 16 16 16 16 15 15 14 14 13 12 12 12 11 11 11 11 11 10 10 9 9 9 9 9 10 10 10 10 10 9 9 8 8 8 8 8 8 8
22 21 20 19 18 17 17 18 17 17 16 16 15 15 14 14 14 13 13 13 13 13 12 12 12 11 11 11 11 11 11 11 11 11 11 10 10 10 10 10 10 10 10
23 23 22 21 21 20 19 19 19 18 18 18 17 17 16 15 15 15 15 15 15 14 14 14 14 14 13 13 13 13 13 13 13 13 13 13 12 12 12 11 11 11 11
25 24 24 24 23 22 21 21 21 20 19 19 19 19 18 18 17 17 17 16 16 16 16 16 16 16 16 15 15 15 15 15 15 15 15 15 15 14 14 14 13 13 13
27 26 26 25 25 24 24 23 22 21 21 21 21 20 20 20 19 19 19 19 18 18 18 18 18 18 18 17 17 17 17 17 17 17 17 17 16 16 16 16 16 15 16
28 28 28 27 26 26 25 25 24 24 24 23 22 22 22 22 22 21 21 21 21 21 21 21 21 20 20 20 19 19 19 19 19 19 19 19 18 18 18 18 18 18 18
30 30 30 29 28 28 27 27 27 26 25 25 24 24 24 24 24 24 23 23 24 24 24 23 23 23 23 22 22 21 21 21 21 21 21 21 20 20 20 21 21 21 21
30 31 31 31 31 31 30 29 29 28 27 27 26 26 26 26 26 26 26 25 26 26 26 25 25 25 25 24 24 24 23 23 23 23 23 23 23 22 22 22 22 22 23
32 32 32 31 32 32 32 31 31 30 29 29 28 28 27 27 28 28 28 27 27 27 27 27 28 28 27 27 27 26 25 25 25 25 25 25 25 24 24 24 24 23 24
33 33 33 33 33 33 33 32 32 31 31 31 31 30 29 29 29 29 30 29 29 29 29 29 30 30 30 30 29 28 28 27 27 27 27 26 26 27 27 27 27 27 27
36 36 36 35 35 35 34 34 33 33 33 32 32 31 31 31 31 31 31 31 31 30 30 30 31 32 32 32 31 30 30 30 29 29 29 28 28 29 29 30 30 30 30
37 38 38 36 37 37 36 36 36 35 35 34 33 33 32 33 33 32 33 33 33 33 32 32 32 32 33 33 33 32 32 31 31 31 31 31 31 31 32 32 32 32 33
38 39 39 38 37 37 37 37 37 36 35 35 35 34 34 34 34 34 34 34 34 34 34 33 33 33 33 34 34 34 33 33 33 33 33 33 34 34 34 34 34 34 35
39 39 40 40 39 39 38 37 38 38 38 37 36 36 36 36 36 35 36 35 36 35 35 34 34 34 33 34 34 35 35 35 35 35 35 35 36 36 36 36 36 36 36
40 40 41 41 41 41 41 40 39 39 40 39 38 37 37 36 36 36 37 37 36 35 35 35 34 34 34 34 35 35 36 37 37 37 37 37 37 37 37 37 38 37 37
40 40 41 42 42 43 43 43 42 41 41 40 39 38 38 37 36 36 36 37 37 36 35 35 34 35 35 36 36 36 36 36 37 38 38 38 38 38 38 38 37 37 37
39 39 41 41 41 42 43 43 43 43 42 42 41 40 40 38 37 36 36 36 37 36 36 36 36 35 36 36 37 38 38 37 36 37 37 38 38 38 38 38 38 38 38
38 38 39 41 41 41 42 43 43 43 42 42 43 41 41 40 39 38 37 37 36 36 36 36 36 37 37 37 38 38 38 38 38 37 38 38 37 38 38 38 39 39 39
38 38 38 39 40 41 42 42 43 42 42 42 43 43 42 42 41 40 41 40 39 39 38 37 37 38 38 38 38 38 39 39 39 39 39 39 39 38 39 39 39 39 39
37 37 38 39 39 39 40 42 43 43 43 43 43 42 42 42 42 42 42 42 41 40 39 39 39 39 39 39 39 39 39 40 41 41 41 40 39 39 40 40 41 40 40
36 36 37 38 39 39 40 41 42 43 43 43 43 43 43 43 43 42 43 43 42 41 41 40 40 40 41 41 42 41 41 41 41 42 42 42 42 42 42 43 43 43 43

GEFSSE_500_meanwind_330.txt.gz
Wind_Speed
13 12 12 12 12 11 11 11 10 9 9 8 8 7 6 6 6 6 5 5 5 5 4 4 4 3 3 3 2 2 1 1 1 1 1 1 1 1 2 2 2 2 2
14 14 14 13 13 13 12 12 11 11 10 9 9 9 8 7 7 7 6 6 6 6 5 5 4 4 4 3 3 3 3 2 2 2 2 2 2 2 2 3 3 3 3
16 15 15 15 15 14 14 14 14 13 12 11 10 10 10 9 8 8 8 7 7 6 6 6 5 6 5 5 5 5 5 4 4 4 3 3 3 4 4 4 4 4 4
18 17 16 16 16 16 15 15 15 15 14 13 12 12 11 11 10 10 9 9 8 8 7 7 7 7 7 7 7 7 6 6 6 6 5 5 6 5 5 5 5 5 5
19 18 18 17 17 17 16 16 16 16 15 15 14 14 13 13 12 11 11 10 10 10 9 9 9 8 8 9 9 9 9 8 8 8 8 7 7 7 7 7 7 7 6
21 20 20 19 18 18 18 17 17 17 17 16 16 15 15 15 14 13 12 12 12 12 11 11 10 10 10 10 11 11 11 10 10 10 10 10 9 9 9 9 9 8 8
22 22 22 21 20 20 19 19 18 18 18 18 17 17 17 16 16 15 14 14 14 13 13 12 12 12 12 12 12 13 13 13 12 12 12 12 11 11 11 11 11 10 10
25 23 23 22 22 21 21 20 20 19 19 19 19 18 18 17 17 16 16 16 16 15 15 15 14 14 14 14 14 15 15 15 15 15 14 14 14 13 13 13 13 13 12
27 25 24 24 23 23 23 22 22 21 21 21 21 20 19 19 18 18 18 17 17 17 17 17 16 16 16 17 17 17 17 17 17 17 17 16 16 15 15 15 14 14 14
27 27 26 25 25 25 25 24 24 24 23 23 22 22 21 20 20 20 20 19 19 19 19 19 19 19 19 19 19 19 19 19 19 19 19 18 18 18 17 17 17 16 16
29 28 27 27 26 26 26 26 26 25 25 24 24 24 23 22 22 22 22 21 21 22 21 21 21 21 21 21 21 21 21 21 21 21 21 21 21 20 20 19 19 19 19
31 30 29 29 28 27 27 28 27 27 27 26 26 25 25 25 24 24 24 23 23 24 23 24 24 23 24 24 24 24 24 23 23 23 23 23 23 22 22 21 21 21 21
32 32 32 31 30 29 29 29 29 29 28 28 28 27 27 27 27 26 26 26 25 26 26 26 26 25 26 26 25 25 25 25 25 25 24 24 24 24 24 23 23 23 23
33 34 33 33 32 32 31 31 31 31 31 30 29 29 29 28 28 28 28 28 28 28 28 28 28 28 28 27 27 27 26 26 26 27 26 26 26 26 26 26 25 25 25
34 34 34 34 34 33 33 33 32 32 32 32 31 31 31 30 29 29 29 29 30 30 29 29 30 30 30 29 29 28 28 28 28 28 28 28 28 28 28 28 28 28 27
35 35 35 35 35 34 35 35 34 34 33 33 33 33 32 32 31 31 31 31 31 31 31 31 32 31 31 31 31 30 30 30 29 29 29 29 30 30 30 30 30 29 29
35 36 36 36 36 36 36 36 37 36 35 34 35 35 34 33 33 34 34 34 34 33 34 33 33 33 33 32 33 32 32 32 31 30 30 31 31 31 31 31 31 31 31
36 36 37 37 37 37 37 38 38 38 37 37 36 36 36 36 35 35 35 35 35 35 35 35 35 35 35 34 34 34 34 33 32 32 32 32 31 31 32 32 33 33 33
37 37 37 38 38 38 38 39 40 40 39 38 37 37 38 38 38 38 38 37 36 36 37 36 36 36 36 36 35 35 35 34 33 34 34 34 33 33 34 34 35 36 35
38 38 38 38 38 39 40 40 40 40 40 39 39 39 39 40 39 39 39 38 38 37 37 37 37 36 36 36 36 35 34 34 34 35 35 35 35 35 36 36 36 36 36
39 38 38 38 39 39 39 39 40 40 40 41 41 40 40 40 40 38 39 38 38 38 38 38 37 37 36 36 35 35 34 35 35 36 36 36 37 37 37 37 37 36 37
39 39 39 38 38 39 39 39 39 40 40 40 40 40 39 39 39 38 37 38 38 38 38 38 37 36 36 35 35 34 35 36 36 37 37 37 37 37 37 37 38 38 38
37 39 39 39 39 38 38 39 39 39 40 40 40 40 40 39 39 38 37 36 37 38 38 39 39 38 37 35 35 36 37 37 37 38 38 38 38 38 38 38 39 40 39
36 38 39 39 39 38 38 38 38 39 40 40 40 40 40 40 39 39 38 38 38 38 38 39 39 38 38 38 38 38 38 38 38 37 37 38 39 39 40 39 39 39 39
35 37 38 39 39 39 39 39 39 40 40 40 40 41 41 41 41 40 39 39 39 38 38 38 39 39 41 42 41 41 41 40 40 40 39 39 40 40 40 40 40 39 38
35 36 37 39 40 40 40 40 40 41 41 41 41 41 42 42 42 41 41 40 40 40 39 39 40 41 41 42 42 42 42 43 42 42 41 41 41 42 42 41 41 40 39

GEFSSE_500_meanwind_336.txt.gz
Wind_Speed
12 12 11 11 11 10 9 9 9 9 8 8 7 7 7 7 7 7 7 7 6 6 5 5 5 5 4 4 3 3 3 2 2 2 2 1 1 1 1 1 2 2 2
14 13 13 12 12 11 11 11 10 10 9 9 9 9 8 8 8 8 8 8 8 7 7 7 7 6 6 5 5 4 4 4 3 3 3 3 3 2 3 3 3 3 4
16 15 14 14 13 13 12 12 12 12 11 10 10 10 10 10 10 10 10 10 9 9 8 8 8 8 7 7 6 6 6 6 5 5 5 4 4 4 4 4 4 5 5
18 17 16 15 15 14 14 14 14 14 13 13 12 12 12 12 12 12 11 11 11 10 10 9 9 8 8 8 8 8 8 7 7 7 6 6 6 6 6 6 6 6 6
19 19 18 17 17 16 15 15 15 16 15 15 15 14 14 14 14 14 14 13 12 12 11 11 10 10 9 10 10 9 9 9 9 9 9 8 8 8 8 8 8 8 8
21 21 20 19 18 18 17 17 17 17 17 17 17 17 16 16 16 16 15 15 14 13 13 12 12 11 11 11 11 11 11 10 10 10 11 10 10 10 10 10 10 10 10
22 22 22 21 20 20 19 19 19 18 18 18 18 18 18 18 17 17 17 16 15 14 14 14 13 13 13 13 13 13 12 12 12 12 12 13 13 13 13 12 12 12 12
24 24 24 24 23 22 21 21 20 20 20 20 19 19 19 18 18 18 18 18 17 16 15 15 15 15 15 15 14 14 14 14 15 15 15 15 15 15 15 14 14 14 14
26 26 25 25 25 24 23 23 22 22 22 21 21 21 20 20 20 19 19 19 19 18 17 17 17 17 17 17 17 16 16 16 17 17 17 17 17 17 17 17 17 17 16
27 27 27 27 26 26 26 25 24 24 24 23 23 23 22 22 21 21 21 21 20 20 20 20 19 19 19 19 19 19 19 19 19 19 19 19 19 19 19 19 19 19 19
28 28 28 28 27 27 27 27 26 26 25 25 25 25 24 24 23 23 23 23 22 22 22 22 21 21 21 21 21 21 21 21 21 21 21 21 21 22 22 21 21 21 21
30 30 30 30 29 28 28 28 28 28 27 27 27 26 26 26 25 25 25 24 24 24 24 24 24 23 23 23 23 23 23 23 23 23 23 23 23 23 23 23 23 23 23
30 30 31 31 31 30 30 30 30 30 29 29 29 28 27 27 27 26 26 26 26 26 25 25 25 25 25 25 25 26 26 25 25 25 25 25 26 26 25 25 25 25 24
31 31 31 31 31 32 32 32 32 31 31 31 30 30 29 28 29 29 28 27 27 27 27 27 27 27 28 28 28 28 28 28 28 27 27 27 27 28 27 27 26 26 26
32 32 32 32 32 33 33 33 33 33 33 32 32 31 31 30 30 30 30 30 29 29 30 30 30 30 30 30 30 30 29 29 30 30 29 29 29 29 29 29 28 28 28
32 32 33 34 34 34 34 35 34 34 34 34 34 34 34 32 32 32 32 32 32 31 32 33 32 32 32 32 32 32 32 32 32 32 32 32 31 31 31 31 31 30 30
33 34 34 35 35 36 35 35 35 35 35 35 34 35 36 35 34 34 34 34 34 34 34 34 35 35 34 34 34 34 33 33 34 34 34 34 34 34 34 33 33 33 32
34 35 35 35 36 36 36 36 36 36 36 36 36 35 36 36 36 35 36 36 35 35 35 36 36 35 35 35 35 35 35 36 36 36 36 35 35 35 35 35 34 34 34
35 35 36 35 35 36 36 36 37 36 36 37 37 37 37 36 37 37 36 36 36 36 36 35 36 36 36 35 35 35 36 37 37 36 36 36 36 35 36 36 36 36 35
35 35 35 36 35 36 36 37 37 36 36 37 38 37 36 36 36 37 36 36 36 36 36 36 36 37 38 37 36 36 37 37 36 36 36 36 36 36 36 37 37 37 36
33 34 35 35 36 37 36 37 38 37 37 37 38 38 37 37 36 36 37 37 37 36 37 38 37 38 38 38 38 38 37 37 36 36 36 36 36 36 37 37 37 37 38
34 34 35 36 36 37 38 38 38 38 38 38 39 38 38 39 38 37 37 37 38 38 38 39 39 38 37 38 38 37 37 37 38 38 37 37 36 37 37 38 38 39 39
35 35 35 36 36 37 38 38 38 39 40 40 40 40 39 39 38 38 37 37 38 39 39 39 39 39 39 39 38 37 37 37 38 37 38 37 37 38 39 39 39 40 40
35 35 35 36 37 37 37 39 40 40 39 39 39 40 41 40 40 38 38 39 38 38 39 39 39 39 40 40 39 38 37 37 37 36 36 37 38 39 39 39 40 40 41
35 35 34 36 38 38 38 38 39 40 40 40 40 41 41 40 40 40 40 40 39 39 39 39 40 40 40 39 39 38 38 37 37 37 37 38 38 39 40 40 41 41 41
35 36 35 35 37 38 39 39 40 40 41 41 40 41 41 40 40 40 40 40 40 40 40 41 41 41 40 40 40 39 40 39 39 39 39 39 39 40 41 42 42 42 43

GEFSSE_500_meanwind_342.txt.gz
Wind_Speed
12 11 11 10 10 9 9 8 7 6 6 5 5 5 4 4 3 3 3 3 3 3 3 3 2 2 3 3 3 3 3 3 3 3 2 2 2 2 2 3 3 2 2
14 14 13 12 12 11 10 10 9 8 8 7 6 6 6 5 5 5 5 5 5 5 5 5 4 4 4 4 4 4 4 4 4 4 4 4 4 4 4 4 4 4 4
15 15 15 14 13 13 12 11 11 10 9 9 8 7 7 7 7 7 7 7 7 7 7 6 6 6 6 6 6 5 5 5 5 5 5 5 5 5 5 5 5 5 5
17 17 17 16 15 15 14 13 12 12 11 11 10 10 10 9 9 9 9 9 9 9 8 8 8 8 8 8 7 7 7 7 6 6 6 7 7 7 7 7 7 7 7
19 19 18 18 17 16 16 15 14 14 14 13 13 12 12 12 11 11 10 10 11 10 10 10 10 10 10 9 9 9 9 8 8 8 8 8 9 9 9 9 9 9 9
21 20 20 20 19 18 17 17 16 16 15 16 15 14 14 14 13 13 12 12 12 12 12 12 12 11 11 11 11 10 10 10 10 10 9 10 10 10 10 10 11 11 11
23 22 22 22 21 20 19 19 18 18 17 17 17 17 16 16 15 15 14 14 14 13 13 13 13 13 13 12 12 12 11 11 11 11 11 11 11 12 12 12 12 13 13
25 25 24 23 23 23 22 22 21 20 20 19 18 18 17 17 16 16 16 16 15 15 15 15 14 14 14 14 14 14 14 13 13 13 13 13 13 14 14 14 15 15 15
27 26 26 26 25 25 24 23 23 22 22 21 20 20 20 19 18 18 18 18 18 17 17 17 16 16 16 16 16 16 16 16 15 15 16 16 16 16 16 16 16 17 17
28 27 27 27 27 26 26 25 25 23 23 23 22 21 20 21 20 20 20 20 20 20 19 19 18 18 18 18 18 18 18 18 18 18 18 18 18 19 19 19 19 19 19
29 29 28 28 28 28 27 26 26 25 25 25 25 24 23 22 22 22 22 22 22 22 22 21 21 20 20 20 20 20 21 21 20 20 20 21 21 21 21 21 21 21 21
29 30 30 30 30 29 28 27 27 27 27 27 26 26 25 25 24 24 24 24 24 24 24 23 23 23 22 22 23 23 23 23 23 23 23 23 23 23 23 23 23 23 23
29 30 30 30 31 30 30 29 29 29 28 29 28 27 27 27 26 25 25 26 26 26 26 26 26 25 25 25 25 25 25 25 25 26 26 26 26 26 26 26 25 25 25
30 31 31 31 31 31 31 30 30 30 30 30 30 29 29 29 28 27 27 27 27 27 27 28 28 27 27 27 27 28 28 28 28 28 28 28 28 28 28 28 28 28 27
31 31 32 33 33 33 32 31 30 31 31 31 31 31 31 30 30 29 29 29 29 29 29 30 30 30 29 29 29 29 29 29 30 30 30 30 30 31 30 30 30 30 30
31 32 33 34 34 34 34 33 32 33 33 33 32 33 33 33 33 32 32 32 32 32 32 32 32 32 32 32 32 31 31 31 31 31 32 32 32 32 32 32 32 32 31
32 33 34 36 35 35 35 34 34 34 34 34 34 34 34 34 35 34 34 33 34 34 33 34 34 33 33 33 33 33 33 33 33 33 34 35 35 34 34 34 34 34 34
32 33 34 35 36 36 36 35 35 35 35 35 35 35 36 36 35 35 35 35 35 35 35 35 35 34 34 34 34 33 33 34 35 35 36 36 36 36 36 36 35 36 36
33 33 33 34 36 37 37 36 35 35 35 36 36 36 35 36 36 35 36 35 35 36 36 35 35 35 36 36 35 35 35 35 36 36 36 36 36 36 37 36 37 38 38
33 33 33 34 36 37 37 37 37 35 35 37 37 37 37 37 37 37 37 36 36 36 36 36 36 37 37 36 36 37 37 38 37 37 37 37 36 37 37 38 38 38 38
33 33 34 35 35 36 37 38 37 37 36 36 37 37 38 38 37 36 37 37 37 37 36 37 37 38 38 38 38 38 38 38 39 39 38 37 38 38 39 39 39 39 40
33 33 34 35 36 36 36 37 38 37 37 36 37 38 38 39 38 38 37 37 37 37 37 37 37 38 38 38 38 39 39 39 39 39 38 38 38 38 39 40 40 40 40
33 33 35 36 36 36 36 37 38 38 37 37 37 37 39 39 39 39 39 39 38 38 38 37 37 38 38 38 38 38 39 39 39 39 39 39 39 39 40 40 40 40 40
33 34 35 37 37 38 37 37 39 39 38 39 39 39 39 39 40 41 40 40 39 39 39 39 38 38 39 39 39 39 40 40 40 38 38 38 39 40 40 41 40 39 39
34 35 36 37 38 38 38 38 40 41 40 39 41 40 39 40 40 41 40 40 41 41 40 40 41 40 41 41 40 41 41 41 41 40 39 40 40 41 40 40 40 40 39
35 36 37 37 38 38 39 39 39 40 41 41 42 43 42 41 41 41 41 41 41 41 41 41 42 42 42 42 42 42 42 42 42 41 41 41 41 41 41 41 41 41 41

GEFSSE_500_meanwind_348.txt.gz
Wind_Speed
13 13 12 11 10 10 9 9 9 9 9 9 8 8 7 7 7 6 6 6 6 5 4 3 3 3 3 2 2 2 2 2 2 2 2 2 2 2 2 3 2 2 2
15 15 14 13 12 11 11 10 10 11 10 10 10 9 9 8 8 7 7 7 7 6 5 4 4 4 4 3 3 3 3 3 3 3 4 4 3 3 4 4 4 4 4
17 16 15 15 14 13 13 12 12 12 11 11 11 11 10 10 9 9 8 7 8 7 7 6 5 5 5 5 5 4 4 4 5 5 5 5 6 6 6 6 6 6 6
18 18 17 17 16 15 15 14 14 13 13 13 13 13 12 11 11 10 10 9 9 9 9 8 7 7 7 7 6 6 6 6 6 6 7 7 7 7 7 7 7 8 8
20 19 19 19 18 17 17 16 15 15 15 15 14 15 14 13 12 12 12 11 11 10 10 9 9 9 8 8 8 8 8 8 8 8 8 8 9 9 9 9 9 10 10
21 21 21 21 20 20 19 18 17 17 16 16 16 16 16 15 15 14 14 13 12 12 11 11 10 10 10 10 10 10 10 10 10 10 10 11 11 11 11 12 12 12 12
22 22 23 23 22 22 21 21 20 20 19 18 18 18 18 18 17 16 16 15 14 14 13 12 12 12 12 11 12 12 12 12 12 12 13 13 13 13 13 14 14 14 14
24 25 24 24 24 24 23 22 22 22 21 21 20 20 20 20 19 19 18 17 17 16 16 15 14 14 14 14 14 14 14 14 14 14 15 15 15 15 15 15 16 16 16
26 26 26 26 26 25 25 25 24 24 23 23 22 21 21 21 21 21 20 19 19 18 18 17 17 16 16 16 16 16 16 16 16 16 16 17 17 17 17 17 17 17 17
27 27 28 27 27 27 27 26 25 25 25 25 24 24 23 23 23 22 22 21 20 20 20 19 19 19 18 18 18 18 18 18 18 18 18 18 18 19 19 19 19 19 19
29 29 29 29 28 29 28 28 27 26 26 26 26 25 25 25 24 24 24 23 22 22 22 22 22 21 21 20 20 20 20 20 20 20 21 21 21 21 21 21 21 21 21
30 31 31 31 30 30 30 29 29 28 28 28 27 27 26 26 26 25 25 25 25 24 24 24 24 24 24 23 23 23 22 22 22 22 22 23 23 23 23 24 24 24 24
31 32 32 32 32 31 31 31 31 30 30 30 29 29 28 28 27 27 27 27 27 26 26 26 26 26 26 26 25 25 25 24 24 25 24 24 25 25 25 25 26 26 26
31 33 33 34 34 34 33 33 33 32 32 31 30 30 29 29 28 28 29 29 29 28 27 28 28 28 28 28 27 27 26 26 26 27 27 27 27 27 28 28 28 28 28
32 33 33 34 34 35 34 34 34 33 32 32 31 31 31 30 29 30 31 30 30 30 29 29 29 29 30 30 29 29 28 28 28 28 29 29 29 30 30 30 30 29 29
32 32 33 33 34 34 34 34 34 34 33 33 33 32 32 32 32 32 32 32 32 31 31 31 31 31 31 31 30 30 30 30 30 30 30 30 31 31 31 32 32 32 32
31 31 32 33 33 34 34 35 35 35 35 34 34 34 33 33 34 33 33 33 33 32 32 32 32 32 33 32 32 32 32 32 31 31 31 32 32 33 33 33 33 33 33
31 31 31 32 33 34 35 36 37 37 36 36 35 35 34 34 34 34 33 34 34 33 33 33 33 33 34 34 33 33 33 33 33 33 32 33 33 33 33 34 34 35 35
32 32 32 32 33 34 35 36 37 38 38 37 36 36 36 36 36 35 35 35 35 35 35 35 34 34 35 35 35 35 35 34 35 35 35 34 34 35 36 36 36 36 37
32 33 34 33 33 33 34 35 36 37 38 38 38 37 37 37 36 35 36 36 36 36 36 36 36 36 36 36 37 37 37 37 37 37 37 37 37 37 37 38 38 38 39
33 33 34 34 34 33 33 34 36 36 37 38 38 38 38 37 37 37 36 37 36 36 37 37 38 37 37 37 38 38 38 38 38 38 39 39 39 39 39 39 39 39 40
33 33 33 34 34 34 34 35 36 37 37 37 38 38 38 38 39 39 38 37 37 37 36 37 38 38 38 38 39 39 39 39 40 40 40 41 41 41 41 40 40 40 40
33 33 34 34 35 34 35 35 37 38 38 38 38 38 38 38 39 40 39 39 39 39 38 38 38 38 39 39 40 40 40 41 41 41 42 42 42 42 42 42 42 41 41
33 34 34 35 35 35 36 36 37 38 38 38 38 38 39 39 40 39 40 40 39 39 40 40 39 39 39 40 40 41 42 42 41 42 43 43 43 43 43 43 43 43 43
33 33 34 35 36 36 36 37 37 39 40 40 40 40 40 40 41 41 40 39 39 39 39 39 39 39 40 40 41 42 42 42 43 43 43 42 42 43 44 44 44 44 44
33 33 33 34 35 35 36 37 37 39 40 41 42 42 41 41 42 42 41 40 40 41 40 41 41 41 42 42 42 43 43 44 44 44 43 43 43 43 44 46 47 46 45

GEFSSE_500_meanwind_354.txt.gz
Wind_Speed
14 13 13 13 13 12 12 11 11 11 11 11 10 10 9 8 8 7 7 6 6 6 5 5 4 4 4 3 3 2 2 2 2 2 1 1 1 2 2 2 2 2 2
15 15 15 14 14 14 13 13 12 12 12 12 11 11 10 9 9 8 8 7 7 7 7 6 5 5 5 4 4 3 3 3 3 3 2 2 2 2 2 2 3 3 3
16 16 16 16 16 16 15 15 14 13 13 13 12 12 11 11 10 10 9 9 8 8 8 7 7 7 6 6 5 5 5 5 4 4 4 4 4 4 5 5 4 4 4
18 18 18 18 18 17 17 17 16 15 14 14 14 14 14 13 12 12 11 11 10 9 9 9 8 8 7 7 7 6 6 6 6 6 6 6 6 7 7 7 7 7 7
19 19 19 20 20 19 19 18 18 17 16 16 16 16 15 15 14 13 12 12 12 11 10 10 10 10 9 9 8 8 8 8 8 8 8 9 9 9 10 9 9 9 9
21 21 21 21 21 21 21 20 19 19 18 18 17 17 17 16 16 16 15 14 13 13 12 12 12 11 11 11 10 10 10 10 10 10 10 11 11 11 12 12 11 11 11
23 23 23 23 22 23 23 22 22 21 21 20 19 19 19 18 18 18 17 16 15 15 14 14 14 13 13 13 13 13 12 12 12 12 12 13 13 13 13 13 13 13 13
25 25 25 24 24 24 24 24 23 23 23 22 21 21 21 20 20 19 19 18 18 17 16 16 16 15 15 14 14 15 15 15 14 14 14 14 15 15 15 15 15 15 15
26 26 26 26 26 25 25 25 25 24 24 24 23 22 22 22 21 21 20 20 19 19 18 18 17 18 17 17 16 17 17 17 16 16 16 16 16 17 17 17 17 17 17
27 28 28 28 27 27 26 26 26 26 26 26 25 24 23 23 22 22 22 21 21 21 21 20 19 20 19 19 19 19 19 19 18 18 18 18 18 18 18 18 19 19 19
29 29 29 29 29 28 28 28 28 28 27 27 26 25 25 25 24 24 24 24 23 23 23 23 22 21 21 21 21 21 21 21 20 20 20 19 20 20 20 20 20 21 21
31 31 31 31 31 30 30 30 30 30 30 29 28 27 27 26 26 26 25 25 25 25 25 24 24 23 23 23 23 23 23 23 22 22 22 22 22 22 22 22 22 23 23
32 33 33 33 33 33 33 33 32 32 32 31 31 30 29 28 28 27 26 26 26 26 26 26 26 25 25 25 25 25 25 25 24 24 24 24 24 24 24 24 24 24 25
33 34 35 35 35 35 35 34 34 34 33 33 33 32 31 30 30 29 29 28 27 27 27 28 28 27 27 27 27 26 26 26 26 26 26 26 26 27 26 26 26 26 27
34 35 36 36 35 35 35 35 35 36 35 35 34 34 33 33 32 31 31 30 28 28 29 29 29 29 29 29 29 28 28 28 28 28 28 28 28 29 29 28 28 28 29
35 35 36 36 36 35 36 36 36 36 36 36 36 35 34 34 33 32 31 31 30 30 30 30 29 30 30 30 30 30 29 30 30 30 30 30 30 30 30 30 30 30 30
35 36 36 36 36 36 37 36 36 37 36 36 36 36 35 35 35 34 33 32 32 32 31 31 31 31 31 31 31 31 31 31 32 32 32 32 32 32 32 32 32 32 32
35 35 35 36 35 36 36 37 37 36 37 37 36 37 37 36 36 36 34 33 33 33 33 33 33 33 33 33 33 32 33 33 33 33 34 34 33 33 33 33 33 33 33
35 35 34 35 36 36 37 37 37 37 38 37 37 37 37 37 36 36 35 35 34 34 34 34 35 34 34 34 34 35 35 35 35 35 35 35 35 34 34 34 34 34 34
35 34 34 34 34 35 36 36 36 36 37 37 37 37 37 37 37 37 37 37 36 35 36 36 35 36 36 35 35 35 36 36 36 36 36 37 37 36 36 36 36 36 36
35 35 34 34 34 34 35 34 35 35 36 37 38 37 37 37 38 38 38 38 37 36 37 38 37 37 37 37 37 36 36 37 37 37 38 38 38 38 38 38 38 38 38
35 34 34 34 34 35 34 34 34 35 35 36 37 36 37 38 39 39 39 39 39 38 37 37 37 37 37 37 37 37 37 38 38 38 38 38 38 39 39 40 40 40 40
34 33 33 33 33 33 33 33 34 34 35 36 35 36 38 38 39 39 39 40 40 40 40 39 39 37 37 37 37 37 38 38 38 38 39 39 39 40 40 40 40 41 41
33 33 33 32 32 32 33 33 34 34 35 35 36 37 38 39 39 39 40 40 40 40 41 41 40 40 40 39 38 38 39 39 40 39 40 40 40 41 41 42 42 42 42
32 33 33 32 32 32 32 33 34 35 35 36 36 37 38 37 37 38 39 38 38 39 40 40 40 40 40 40 39 39 40 40 40 41 41 41 42 42 42 43 44 43 43
31 32 33 33 33 33 33 33 33 33 34 36 36 37 37 37 37 36 37 38 37 38 39 40 40 40 40 41 42 41 41 41 41 42 41 41 42 42 43 43 43 43 44

GEFSSE_500_meanwind_360.txt.gz
Wind_Speed
13 13 13 12 12 11 11 11 11 11 11 11 10 10 9 9 9 8 8 8 7 7 6 6 5 4 4 4 4 4 4 3 4 4 4 4 4 4 4 4 4 3 3
13 14 14 14 14 13 12 12 12 12 12 12 12 11 11 10 10 10 9 9 8 8 8 7 7 6 5 5 5 5 5 5 4 4 4 4 5 5 5 5 5 4 4
14 14 15 15 15 15 14 13 13 14 14 14 13 13 12 12 12 11 11 10 10 9 9 8 8 7 7 7 7 7 6 6 6 6 6 6 6 6 6 6 6 6 6
16 16 16 16 16 16 16 16 15 15 15 15 15 14 14 13 13 12 12 12 11 11 10 10 9 9 8 8 8 8 8 8 8 8 8 8 7 7 8 8 8 8 8
17 17 17 17 17 17 18 18 18 17 16 17 16 15 15 15 14 14 14 13 13 12 12 12 11 11 10 10 10 10 10 10 10 9 9 9 9 9 9 9 10 9 9
19 19 19 19 19 19 19 20 20 19 19 18 18 17 17 17 16 16 15 15 15 14 13 13 13 12 12 12 12 12 12 11 11 11 11 11 11 11 11 11 11 11 10
21 21 21 21 21 21 21 22 22 22 21 20 20 19 19 18 18 18 17 16 16 16 15 15 15 14 14 13 13 14 14 13 13 13 13 13 13 13 13 13 13 13 13
23 23 23 23 23 23 23 23 23 24 23 22 21 21 21 20 20 19 19 18 18 18 17 17 17 16 16 15 15 15 16 15 15 15 15 15 15 15 15 15 15 15 15
24 25 25 24 24 24 25 25 25 25 25 25 24 24 23 22 22 21 21 21 20 20 19 19 19 19 18 18 17 17 17 17 17 17 17 17 17 17 17 16 16 17 17
25 26 26 26 26 26 26 26 26 26 26 26 26 25 25 24 24 23 23 22 22 22 22 21 21 20 20 20 19 19 18 19 18 18 18 18 18 18 18 18 19 19 19
27 27 27 28 28 28 28 27 27 28 29 28 28 27 26 26 25 25 25 24 24 23 23 23 23 22 22 22 21 21 21 20 21 20 20 20 20 20 19 20 21 21 21
28 28 29 29 30 30 30 30 29 29 29 29 29 29 29 28 27 27 27 26 25 25 25 24 24 24 24 24 23 23 23 22 22 22 22 22 22 22 21 21 22 23 23
31 31 30 30 31 32 32 32 32 31 31 31 31 31 30 30 29 29 28 27 27 27 27 26 26 26 25 25 25 25 25 24 24 24 24 24 24 24 24 24 24 25 25
32 32 33 32 33 33 34 34 34 34 34 34 33 33 33 32 32 31 30 29 29 29 28 28 28 28 27 27 27 26 27 27 27 26 26 26 26 27 27 27 26 27 27
34 34 34 34 34 34 35 36 36 36 36 36 36 36 35 35 35 34 33 31 31 30 30 29 29 29 29 29 29 29 29 29 29 28 28 28 29 29 29 28 28 28 28
35 35 35 35 35 35 35 35 36 37 37 38 38 37 37 36 36 36 34 33 33 32 32 31 31 30 31 31 31 31 31 31 31 31 31 31 31 31 31 30 30 30 30
36 36 36 36 36 36 36 36 36 37 37 38 38 38 38 37 37 36 35 35 34 34 34 33 33 32 32 32 33 33 33 33 33 33 33 32 32 33 32 32 32 32 31
36 36 36 37 37 37 36 36 36 36 37 38 38 38 38 38 38 37 36 36 35 35 35 35 34 34 33 33 33 34 34 34 34 34 35 34 34 34 34 34 34 34 34
37 36 36 36 37 37 37 38 37 36 36 37 38 38 39 39 39 38 37 36 36 36 36 36 36 35 34 34 34 35 35 35 35 35 35 35 35 34 34 34 34 34 35
37 37 36 37 37 37 37 36 36 35 36 36 36 36 38 38 38 38 38 37 37 36 36 36 36 34 35 35 35 36 35 35 35 36 36 36 36 35 35 36 36 36 37
37 37 36 36 36 36 36 35 35 34 34 35 35 35 36 36 37 36 36 37 37 37 38 38 37 37 36 36 37 37 37 36 37 36 36 37 37 37 37 37 38 38 38
37 36 36 36 36 35 35 35 35 34 33 33 35 36 36 36 35 35 36 37 37 37 38 38 38 38 38 38 38 39 39 38 38 37 37 38 39 39 39 39 39 39 40
35 36 36 34 34 34 35 35 36 36 35 34 34 35 36 37 36 36 36 37 36 37 37 37 38 38 39 39 39 39 39 39 38 38 39 40 40 40 40 40 40 41 41
34 35 36 35 34 33 33 34 35 35 34 34 34 34 35 36 36 36 37 36 37 37 37 38 39 39 39 40 40 40 41 41 40 39 40 41 41 42 42 42 42 42 42
33 33 34 35 35 34 33 33 33 34 34 34 34 34 35 36 36 36 36 36 37 38 39 39 39 39 39 40 40 40 41 41 42 42 41 41 42 42 43 43 43 43 43
32 32 33 34 35 34 34 34 33 33 33 34 34 35 35 36 36 37 37 37 37 38 38 38 39 40 40 40 41 42 42 42 42 42 42 42 42 42 43 43 44 44 44